Lexington Weather

Lexington, Massachusetts, USA

46°F
10/22/2019 2:02am 
  • Lexington Conditions: Few Clouds
  • Temperature: 46.2°F / 7.9°CWarmer 0.7°F than last hour.
  • Dew Point: 44.6°FIncreased 1.6°Fsince last hour.
  • Relative Humidity: 94%Increased 3.0% since last hour.
  • Wind: Calm, 10-min avg: Calm, gust: None
  • Barometer: 30.12 in Steady
  • Visibility: 10 miles
  • Rain Today: 0.00 in
  •   

Regional Weather Roundup
for Boston, MA

        
000
ASUS41 KBOX 200110
RWRBOX

REGIONAL WEATHER ROUNDUP
NATIONAL WEATHER SERVICE BOSTON/NORTON MA
900 PM EDT SAT OCT 19 2019

NOTE:  "FAIR" INDICATES FEW OR NO CLOUDS BELOW 12,000 FEET WITH NO 
SIGNIFICANT WEATHER AND/OR OBSTRUCTIONS TO VISIBILITY.

MAZALL-200200-
EASTERN MASSACHUSETTS
  
CITY           SKY/WX    TMP DP  RH WIND       PRES   REMARKS
BOSTON         FAIR      54  37  52 SW3       30.03S                  
BEVERLY        FAIR      42  38  85 CALM      30.02R                  
LAWRENCE       FAIR      44  37  76 CALM      30.05R                  
BEDFORD        FAIR      43  36  76 CALM      30.02R                  
BLUE HILL      NOT AVBL                                               
NORWOOD        FAIR      41  35  79 CALM      30.02S                  
MARSHFIELD     FAIR      43  41  93 CALM      30.03R                  
PLYMOUTH       FAIR      41  39  93 CALM      30.03S                  
TAUNTON        FAIR      38  35  89 CALM      30.03R                  
NEW BEDFORD    FAIR      39  37  92 CALM      30.03R                  
$$

MAZALL-200200-
CAPE COD AND THE ISLANDS
  
CITY           SKY/WX    TMP DP  RH WIND       PRES   REMARKS
FALMOUTH       CLEAR     41  39  93 CALM      30.03S                  
HYANNIS        FAIR      42  37  82 CALM      30.03R                  
CHATHAM        NOT AVBL                                               
PROVINCETOWN   FAIR      45  42  89 S6          N/A                   
NANTUCKET      FAIR      47  41  80 NW3       30.04S                  
MARTHAS VNYRD  FAIR      38  36  92 CALM      30.03S                  
$$
 
MAZALL-200200-
CENTRAL AND WESTERN MASSACHUSETTS
  
CITY           SKY/WX    TMP DP  RH WIND       PRES   REMARKS
WORCESTER      FAIR      49  35  58 W3        30.02S                  
FITCHBURG      FAIR      42  36  79 N3        30.04R                  
ORANGE         FAIR      40  36  86 CALM      30.03S                  
SPRINGFIELD    MOCLDY    42  37  80 CALM      30.02R                  
WESTFIELD      FAIR      41  35  79 CALM      30.03R                  
NORTH ADAMS    FAIR      35  32  88 CALM      30.05R                  
PITTSFIELD     FAIR      38  33  82 CALM      30.02R                  
$$
 
RIZALL-200200-
RHODE ISLAND
  
CITY           SKY/WX    TMP DP  RH WIND       PRES   REMARKS
PROVIDENCE     FAIR      46  40  79 W3        30.04R                  
NEWPORT        FAIR      51  43  74 CALM      30.03S                  
BLOCK ISLAND   FAIR      49  40  71 SW6       30.05R                  
SMITHFIELD     FAIR     N/A N/A N/A CALM      30.03S                  
WESTERLY       FAIR      46  43  89 CALM      30.04R                  
$$
 
CTZALL-200200-
CONNECTICUT
  
CITY           SKY/WX    TMP DP  RH WIND       PRES   REMARKS
BRADLEY INTL   MOCLDY    49  36  61 CALM      30.03R                  
HARTFORD       FAIR      46  41  82 CALM      30.03R                  
BRIDGEPORT     FAIR      52  43  71 CALM      30.03S                  
DANBURY        FAIR      42  38  85 CALM      30.04R                  
GROTON         FAIR      48  43  82 NW3       30.03R                  
NEW HAVEN      FAIR      53  43  68 CALM      30.03S                  
CHESTER        FAIR      50  41  71 CALM      30.03S                  
MERIDEN        FAIR      42  38  85 CALM      30.04R                  
WILLIMANTIC    FAIR      41  38  89 CALM      30.05R                  
OXFORD         FAIR      44  38  79 CALM      30.03S                  
$$

MEZ002-015-021-024-NHZ003-005-008-011-012-014-VTZ005-008-200200-
NORTHERN NEW ENGLAND
  
CITY           SKY/WX    TMP DP  RH WIND       PRES   REMARKS
PORTLAND ME    FAIR      42  35  76 N5        30.03R                  
BANGOR ME      FAIR      41  35  79 W5        30.01R                  
CONCORD NH     FAIR      39  34  82 CALM      30.04R                  
MANCHESTER NH  FAIR      45  37  73 CALM      30.02R                  
NASHUA NH      FAIR      43  38  82 CALM      30.04R                  
PORTSMOUTH NH  PTCLDY    42  34  72 N3        30.01R                  
JAFFREY NH     FAIR      37  34  89 CALM      30.03S                  
KEENE NH       FAIR      38  36  92 CALM      30.04S                  
BURLINGTON VT  FAIR      42  35  76 CALM      30.05R                  
MT. WASHINGTON PTCLDY    32  10  40 NW26        N/A  WCI  18          
$$

NYZ052-076-200200-
EASTERN NEW YORK
  
CITY           SKY/WX    TMP DP  RH WIND       PRES   REMARKS
ALBANY         FAIR      43  37  79 CALM      30.03S                  
NEW YORK CITY  MOCLDY    57  41  55 SW6       30.02S                  
$$
 
ANZALL-200200-
MARINE OBSERVATIONS
  
STATION/POSITION TIME  TEMP    WIND        PRES    VSBY  WAVE
                       AIR SEA DIR/SP/G                  HT/PER
                 (UTC) (F)     (DEG/KT/KT) (MB)    (MI)  (FT/S)
BOSTON BUOY      0050   54 56  180/  8/  8 1016.2R         1/11
BUZZARDS BAY     0000   56     270/ 12/ 15 1017.3R
NANTUCKET SOUND  0040      56                N/A           1/ 3
MASS BAY-STELLWA 0004   54 56  190/ 10/ 12 1015.9R  1 7/8  1
ISLE OF SHOALS   0000   55     310/  5/  6 1015.9R
S OF BLOCK IS    0100      60                N/A           2/ 4
$$

......................KEY.........................
  SKY/WX - SKY CONDITION/PRESENT WEATHER
  TMP    - TEMPERATURE IN FAHRENHEIT
  DWPT   - DEWPOINT IN FAHRENHEIT
  RH     - RELATIVE HUMIDITY IN PERCENT
  WIND   - DIRECTION AND SPEED IN MPH
  PRES   - MEAN SEA LEVEL PRESSURE IN INCHES OF HG
  WCI    - WIND CHILL INDEX
  VSB    - VISIBILITY IN MILES
  HX     - HEAT INDEX
  TC     - TEMPERATURE IN CELSIUS
  VRB    - VARIABLE WIND DIRECTION
  N/A    - NOT AVAILABLE
  
      

Other recent Regional Weather Roundups

Tue Oct 22, 1:10am

Tue Oct 22, 1:00am

Tue Oct 22, 12:10am

Tue Oct 22, 12:00am

Mon Oct 21, 11:10pm

Mon Oct 21, 11:00pm

Mon Oct 21, 10:10pm

Mon Oct 21, 10:01pm

Mon Oct 21, 9:10pm

Mon Oct 21, 9:00pm

Mon Oct 21, 8:10pm

Mon Oct 21, 8:00pm

Mon Oct 21, 7:10pm

Mon Oct 21, 7:01pm

Mon Oct 21, 6:10pm

Mon Oct 21, 6:01pm

Mon Oct 21, 5:10pm

Mon Oct 21, 5:01pm

Mon Oct 21, 4:10pm

Mon Oct 21, 4:00pm

Mon Oct 21, 3:10pm

Mon Oct 21, 3:01pm

Mon Oct 21, 2:10pm

Mon Oct 21, 2:00pm

Mon Oct 21, 1:10pm

Mon Oct 21, 1:01pm

Mon Oct 21, 12:10pm

Mon Oct 21, 12:00pm

Mon Oct 21, 11:10am

Mon Oct 21, 11:00am

Mon Oct 21, 10:10am

Mon Oct 21, 10:00am

Mon Oct 21, 9:10am

Mon Oct 21, 9:00am

Mon Oct 21, 7:10am

Mon Oct 21, 7:00am

Mon Oct 21, 6:10am

Mon Oct 21, 6:00am

Mon Oct 21, 5:10am

Mon Oct 21, 5:00am

Mon Oct 21, 4:10am

Mon Oct 21, 4:00am

Mon Oct 21, 3:10am

Mon Oct 21, 3:00am

Mon Oct 21, 2:10am

Mon Oct 21, 2:01am

Mon Oct 21, 1:10am

Mon Oct 21, 1:00am

Mon Oct 21, 12:10am

Mon Oct 21, 12:00am

Sun Oct 20, 11:10pm

Sun Oct 20, 11:00pm

Sun Oct 20, 10:10pm

Sun Oct 20, 10:00pm

Sun Oct 20, 9:10pm

Sun Oct 20, 9:01pm

Sun Oct 20, 8:10pm

Sun Oct 20, 8:00pm

Sun Oct 20, 7:10pm

Sun Oct 20, 7:01pm

Sun Oct 20, 6:10pm

Sun Oct 20, 6:00pm

Sun Oct 20, 5:10pm

Sun Oct 20, 5:00pm

Sun Oct 20, 4:10pm

Sun Oct 20, 4:00pm

Sun Oct 20, 3:10pm

Sun Oct 20, 3:00pm

Sun Oct 20, 2:10pm

Sun Oct 20, 2:01pm

Sun Oct 20, 1:10pm

Sun Oct 20, 1:01pm

Sun Oct 20, 12:10pm

Sun Oct 20, 12:00pm

Sun Oct 20, 11:10am

Sun Oct 20, 11:00am

Sun Oct 20, 10:10am

Sun Oct 20, 10:00am

Sun Oct 20, 9:10am

Sun Oct 20, 9:00am

Sun Oct 20, 8:10am

Sun Oct 20, 8:00am

Sun Oct 20, 7:10am

Sun Oct 20, 7:00am

Sun Oct 20, 6:10am

Sun Oct 20, 6:00am

Sun Oct 20, 5:10am

Sun Oct 20, 5:00am

Sun Oct 20, 4:10am

Sun Oct 20, 4:00am

Sun Oct 20, 3:10am

Sun Oct 20, 3:00am

Sun Oct 20, 2:10am

Sun Oct 20, 2:00am

Sun Oct 20, 1:10am

Sun Oct 20, 1:00am

Sun Oct 20, 12:10am

Sun Oct 20, 12:00am

Sat Oct 19, 11:10pm

Sat Oct 19, 11:00pm

Sat Oct 19, 10:10pm

Sat Oct 19, 10:00pm

Sat Oct 19, 9:00pm

Sat Oct 19, 8:10pm

Sat Oct 19, 8:00pm

Sat Oct 19, 7:10pm

Sat Oct 19, 7:00pm

Sat Oct 19, 6:10pm

Sat Oct 19, 6:00pm

Sat Oct 19, 5:10pm

Sat Oct 19, 5:00pm

Sat Oct 19, 4:10pm

Sat Oct 19, 4:00pm

Sat Oct 19, 3:10pm

Sat Oct 19, 3:01pm

Sat Oct 19, 2:10pm

Sat Oct 19, 2:00pm

Sat Oct 19, 1:10pm

Sat Oct 19, 1:01pm

Sat Oct 19, 12:10pm

Sat Oct 19, 12:00pm

Sat Oct 19, 11:10am

Sat Oct 19, 11:01am

Sat Oct 19, 10:10am

Sat Oct 19, 10:00am

Sat Oct 19, 9:10am

Sat Oct 19, 9:00am

Sat Oct 19, 8:10am

Sat Oct 19, 8:00am

Sat Oct 19, 7:10am

Sat Oct 19, 7:00am

Sat Oct 19, 6:10am

Sat Oct 19, 6:00am

Sat Oct 19, 5:10am

Sat Oct 19, 5:00am

Sat Oct 19, 4:10am

Sat Oct 19, 4:00am

Sat Oct 19, 3:10am

Sat Oct 19, 3:00am

Sat Oct 19, 2:10am

Sat Oct 19, 2:00am

Meta data:

ID: 2634cfee-7d83-4b0b-a409-ae4ade74cd69
Link: https://api.weather.gov/products/2634cfee-7d83-4b0b-a409-ae4ade74cd69